SCP
0 0 1 1 1 1 1 1 1 1 1 1 1 1 1 1 1 1 1 0 0 0 0 0 0 0 0 0 0 0 0 0 0 0 0 0 0 0 0 0 0 0 0
0 0 1 1 1 1 1 1 1 1 1 1 1 1 1 1 1 1 1 1 0 0 0 0 0 0 0 0 0 0 0 0 0 0 0 0 0 0 0 0 0 0 0
0 0 1 1 1 1 1 1 1 1 1 1 1 1 1 1 1 1 1 1 1 0 0 0 0 0 0 0 0 0 0 0 0 0 0 0 0 0 0 0 0 0 0
0 0 1 1 1 1 1 1 1 1 1 1 1 1 1 1 1 1 1 1 1 0 0 0 0 0 0 0 0 0 0 0 0 0 0 0 0 0 0 0 0 0 0
0 0 1 1 1 1 1 1 1 1 1 1 1 1 1 1 1 1 1 1 1 0 0 0 0 0 0 0 0 0 0 0 0 0 0 0 0 0 0 0 0 0 0
0 0 1 1 1 1 1 1 1 1 1 1 1 1 1 1 1 1 1 1 1 1 0 0 0 0 0 0 0 0 0 0 0 0 0 0 0 0 0 0 0 0 0
0 0 1 1 1 1 1 1 1 1 1 1 1 1 1 1 1 1 1 1 1 0 0 0 0 0 0 0 0 0 0 0 0 0 0 0 0 0 0 0 0 0 0
0 0 1 1 1 1 1 1 1 1 1 1 1 1 1 1 1 1 1 1 0 0 0 0 0 0 0 0 0 0 0 0 0 0 0 0 0 0 0 0 0 0 0
0 0 1 1 1 1 1 1 1 1 1 1 1 1 1 1 1 1 1 1 0 0 0 0 0 0 0 0 0 0 0 0 0 0 0 0 0 0 0 0 0 0 0
0 0 1 1 1 1 1 1 1 1 1 1 1 1 1 1 1 1 0 0 0 0 0 0 0 0 0 0 0 0 0 0 0 0 0 0 0 0 0 0 0 0 0
0 0 1 1 1 1 1 1 1 1 1 1 1 1 1 0 0 0 0 0 0 0 0 0 0 0 0 0 0 0 0 0 0 0 0 0 0 0 0 0 0 0 0
0 0 0 1 1 1 1 1 1 0 0 1 0 0 0 0 0 0 0 0 0 0 0 0 0 0 0 0 0 0 0 0 0 0 0 0 0 0 0 0 0 0 0
0 0 0 1 1 1 1 1 0 0 0 0 0 0 0 0 0 0 0 0 0 0 0 0 0 0 0 0 0 0 0 0 0 0 0 0 0 0 0 0 0 0 0
0 0 0 0 1 1 1 0 0 0 0 0 0 0 0 0 0 0 0 0 0 0 0 0 0 0 0 0 0 0 0 0 0 0 0 0 0 0 0 0 0 0 0
0 0 0 0 1 1 0 0 0 0 0 0 0 0 0 0 0 0 0 0 0 0 0 0 0 0 0 0 0 0 0 0 0 0 0 0 0 0 0 0 0 0 0
0 0 0 0 0 0 0 0 0 0 0 0 0 0 0 0 0 0 0 0 0 0 0 0 0 0 0 0 0 0 0 0 0 0 0 0 0 0 0 0 0 0 0
0 0 0 0 0 0 0 0 0 0 0 0 0 0 0 0 0 0 0 0 0 0 0 0 0 0 0 0 0 0 0 0 0 0 0 0 0 0 0 0 0 0 0
0 0 0 0 0 0 0 0 0 0 0 0 0 0 0 0 0 0 0 0 0 0 0 0 0 0 0 0 0 0 0 0 0 0 0 0 0 0 0 0 0 0 0
0 0 0 0 0 0 0 0 0 0 0 0 0 0 0 0 0 0 0 0 0 0 0 0 0 0 0 0 0 0 0 0 0 0 0 0 0 0 0 0 0 0 0
0 0 0 0 0 0 0 0 0 0 0 0 0 0 0 0 0 0 0 0 0 0 0 0 0 0 0 0 0 0 0 0 0 0 0 0 0 0 0 0 0 0 0
0 0 0 0 0 0 0 0 0 0 0 0 0 0 0 0 0 0 0 0 0 0 0 0 0 0 0 0 0 0 0 0 0 0 0 0 0 0 0 0 0 0 0
0 0 0 0 0 0 0 0 0 0 0 0 0 0 0 0 0 0 0 0 0 0 0 0 0 0 0 0 0 0 0 0 0 0 0 0 0 0 0 0 0 0 0
0 0 0 0 0 0 0 0 0 0 0 0 0 0 0 0 0 0 0 0 0 0 0 0 0 0 0 0 0 0 0 0 0 0 0 0 0 0 0 0 0 0 0
0 0 0 0 0 0 0 0 0 0 0 0 0 0 0 0 0 0 0 0 0 0 0 0 0 0 0 0 0 0 0 0 0 0 0 0 0 0 0 0 0 0 0
0 0 0 0 0 0 0 0 0 0 0 0 0 0 0 0 0 0 0 0 0 0 0 0 0 0 0 0 0 0 0 0 0 0 0 0 0 0 0 0 0 0 0
0 0 0 0 0 0 0 0 0 0 0 0 0 0 0 0 0 0 0 0 0 0 0 0 0 0 0 0 0 0 0 0 0 0 0 0 0 0 0 0 0 0 0
Wind_Speed
3 4 9 10 12 12 12 13 13 13 13 14 15 15 16 16 16 16 15 15 14 14 14 14 14 14 14 14 13 12 12 12 12 12 12 12 12 13 13 12 11 7 13
2 4 9 10 12 12 13 13 12 12 12 13 14 15 15 16 16 16 15 15 14 14 14 14 14 14 14 14 13 13 13 13 12 12 11 10 11 12 12 12 11 8 13
1 4 6 8 10 11 12 12 12 12 12 13 13 14 15 15 15 15 15 15 15 14 14 14 14 14 14 14 13 13 13 12 12 11 10 5 6 11 12 12 12 12 13
1 3 3 6 8 10 11 12 12 12 12 12 13 13 14 15 15 15 15 15 15 14 14 14 14 14 14 13 13 13 13 12 12 10 5 3 3 10 12 12 12 12 12
0 1 3 5 6 9 10 11 12 12 12 12 12 13 13 14 15 15 14 15 15 14 14 14 14 14 14 13 13 13 13 12 11 8 4 3 3 9 11 11 11 11 11
1 1 2 4 6 7 9 10 11 12 12 12 13 13 13 13 13 14 14 14 14 14 14 14 14 14 14 13 13 13 13 12 9 4 3 3 2 8 10 11 10 10 10
2 2 2 4 5 6 7 9 11 11 12 12 12 13 13 13 13 13 13 14 14 14 14 15 15 14 14 13 13 13 13 12 6 4 3 2 3 8 10 10 10 9 9
2 2 3 4 4 5 7 7 9 10 11 12 12 12 13 13 13 13 14 14 14 14 14 15 15 15 14 13 13 12 12 11 6 4 3 1 4 8 9 9 9 8 8
3 2 3 4 5 5 5 6 8 8 9 11 11 12 12 12 13 13 13 14 13 14 15 15 15 15 14 13 13 12 12 11 5 2 2 1 5 7 8 8 8 7 7
3 3 3 4 4 4 4 6 6 8 8 9 10 10 10 10 12 13 12 13 13 13 14 15 15 15 14 13 13 12 11 9 4 3 1 2 6 7 8 7 6 6 6
5 4 3 4 4 4 4 5 5 7 8 7 8 9 8 6 6 7 9 12 14 13 13 15 15 15 13 12 12 12 9 3 3 2 1 4 7 7 7 7 6 5 5
7 6 4 4 4 4 4 3 4 4 5 4 4 5 4 4 4 5 8 10 12 12 12 14 15 13 9 5 7 9 3 4 3 2 2 6 7 7 7 6 5 5 4
8 7 6 5 4 4 4 3 2 3 3 4 5 5 4 4 4 4 3 5 6 7 5 7 8 5 5 4 4 4 4 3 2 1 2 6 6 7 6 6 6 5 4
8 9 6 5 5 5 5 4 3 3 4 4 5 6 5 3 4 4 3 3 3 3 4 4 4 5 6 6 6 5 5 3 2 2 2 6 7 7 7 6 6 6 5
9 9 7 6 6 5 5 4 4 4 5 5 5 5 6 5 5 5 4 4 4 4 4 5 5 6 6 6 5 6 5 5 4 3 2 5 6 7 7 7 7 6 6
9 9 6 6 6 6 5 5 4 4 5 5 5 6 7 5 6 6 5 5 5 5 5 5 5 6 6 5 6 6 5 5 4 4 3 3 5 6 8 8 7 7 6
9 8 8 7 6 6 5 6 5 5 5 5 5 7 7 7 7 6 6 6 6 5 5 5 5 4 5 5 6 6 5 5 5 4 3 2 2 5 6 8 7 7 7
8 8 8 6 6 7 6 5 4 5 5 5 5 6 8 8 8 6 6 6 6 6 5 6 5 4 5 6 5 4 4 4 5 5 4 3 2 2 4 7 7 8 8
8 8 8 6 7 7 6 4 5 5 5 5 5 6 7 8 9 7 6 6 7 6 6 6 5 5 5 6 5 4 3 4 4 4 4 4 4 3 3 5 6 6 7
7 7 7 7 8 7 4 3 3 4 4 4 5 6 8 8 9 8 6 7 8 6 6 6 7 5 4 5 5 3 2 3 3 4 5 4 4 5 4 3 3 3 6
5 7 7 7 7 6 4 4 4 5 5 4 5 7 8 8 9 8 7 7 8 8 8 8 6 6 4 4 4 2 0 2 3 4 4 4 5 5 4 4 3 3 3
5 6 7 7 7 7 6 5 4 4 4 4 5 6 8 8 9 8 9 8 9 7 9 9 7 5 4 6 5 4 1 2 3 4 3 4 5 3 4 5 4 4 3
5 6 6 7 8 7 6 3 3 2 2 3 4 5 7 8 9 9 10 9 9 9 9 10 10 9 7 5 5 6 5 5 2 2 3 4 4 4 4 4 5 5 4
6 5 5 6 6 6 6 6 6 6 5 6 5 5 6 8 9 9 9 10 10 9 9 10 10 8 9 8 5 3 3 4 4 1 1 2 3 4 5 4 5 5 4
5 5 5 5 5 5 6 8 7 7 6 4 4 5 6 7 8 9 8 10 11 9 10 10 9 9 8 8 7 4 3 2 2 3 3 2 2 3 4 4 4 4 4
4 4 4 4 4 4 5 6 7 8 7 6 6 6 6 5 6 9 9 9 10 9 10 10 10 11 9 9 7 6 5 5 5 4 4 4 3 3 3 3 4 4 4
Wind_Direction
261 209 198 180 173 170 166 162 158 156 154 152 152 151 150 150 148 146 144 142 139 135 133 131 128 124 121 119 116 114 111 107 106 104 104 103 101 99 95 91 86 80 87
234 192 190 181 176 175 172 167 162 158 156 157 157 155 154 152 151 150 148 145 143 139 136 133 130 126 124 122 119 116 112 108 106 102 100 102 104 102 99 98 95 91 88
133 174 182 178 179 178 177 172 166 163 161 159 160 159 157 156 155 154 152 150 147 144 140 136 132 131 128 125 123 120 116 114 109 103 92 76 98 104 102 99 94 91 88
146 162 179 178 179 181 181 176 172 170 167 164 161 160 161 160 161 160 158 155 150 147 143 140 136 134 132 130 128 125 121 118 113 103 76 67 82 109 106 100 95 92 90
115 180 190 181 181 185 185 180 178 176 173 170 167 163 163 166 166 164 162 158 153 150 147 144 141 140 137 135 131 128 125 120 115 97 77 68 69 109 107 102 98 96 93
312 239 211 191 188 188 187 185 182 182 179 176 173 171 170 168 168 168 165 159 156 154 152 149 146 144 141 139 135 131 128 123 108 92 82 74 79 112 110 106 102 100 99
305 266 223 218 202 198 191 189 189 187 184 181 178 176 175 174 170 167 165 162 159 159 157 154 151 148 145 142 139 136 132 127 112 103 96 87 110 119 116 111 107 104 104
274 269 235 225 220 208 201 195 193 192 190 187 185 182 180 178 176 173 166 163 165 165 163 159 156 153 150 147 144 141 137 131 120 116 115 115 134 126 122 119 112 108 107
283 262 242 215 210 212 216 205 200 193 190 190 191 190 186 183 179 177 172 169 168 170 169 164 161 157 155 152 148 144 140 138 125 131 141 160 144 135 132 128 121 115 112
274 259 244 222 210 199 207 213 210 202 197 194 191 191 190 188 184 180 176 175 174 173 173 170 165 161 159 156 153 147 142 135 131 137 154 182 161 147 140 136 130 122 117
271 254 242 229 213 203 203 209 204 202 197 194 190 189 187 188 185 182 182 179 180 178 177 175 170 164 158 157 154 148 139 128 140 151 182 181 165 156 148 145 142 136 129
262 251 232 228 219 204 204 201 198 199 191 189 187 183 182 177 181 178 182 184 183 180 179 178 173 165 151 146 150 142 130 141 148 173 203 189 177 167 160 158 159 159 151
255 255 243 223 219 209 198 197 203 197 186 185 182 178 175 171 171 170 172 181 181 178 173 174 167 154 148 145 142 141 146 150 164 192 215 202 192 186 180 178 182 180 178
258 253 247 228 214 217 204 195 197 202 190 189 187 179 172 174 175 172 173 174 170 168 159 153 156 153 153 152 153 155 159 163 174 189 227 218 207 201 196 196 198 198 200
257 251 247 233 216 215 211 196 202 206 197 192 188 185 179 179 183 180 178 178 174 169 167 162 164 163 162 161 164 166 172 177 180 189 220 231 224 218 210 207 211 217 213
257 246 242 240 225 213 219 206 202 211 199 191 190 190 185 184 187 186 183 182 180 177 175 172 172 173 170 169 173 177 181 180 186 192 205 233 238 233 226 221 222 221 220
258 244 235 242 227 214 221 215 203 209 199 196 195 192 190 189 190 191 188 187 184 176 174 170 169 173 172 171 179 182 184 186 187 195 203 213 237 245 242 234 233 227 228
254 249 236 242 229 219 219 223 210 210 208 199 195 194 194 193 191 192 194 192 182 175 174 175 171 181 182 175 178 186 187 188 194 198 201 209 213 231 247 245 244 237 238
246 245 237 239 231 221 219 223 220 211 214 203 196 196 197 195 193 193 197 193 180 178 181 184 179 181 185 180 178 181 188 194 200 199 204 209 211 216 225 246 250 249 246
245 239 235 236 230 214 210 221 227 216 214 205 202 202 197 197 196 196 196 192 183 182 186 185 182 177 184 177 168 170 194 206 202 206 210 210 212 215 215 223 233 249 251
252 244 236 231 224 204 197 205 216 214 206 205 208 206 202 199 198 200 199 191 190 191 192 184 181 175 178 160 140 134 317 233 220 219 211 210 217 215 207 211 211 216 245
256 248 250 239 224 209 206 209 225 210 204 209 209 208 208 204 200 204 199 195 196 192 190 188 177 172 176 172 158 143 165 291 257 222 210 213 219 209 211 213 209 213 218
270 255 254 245 224 214 208 207 225 202 193 206 211 213 214 209 205 206 204 199 197 193 194 194 186 179 181 185 180 160 165 203 226 241 216 215 211 209 216 212 213 216 214
269 264 260 247 226 218 205 203 207 212 219 222 217 219 221 215 210 208 207 203 200 197 196 195 193 188 179 182 191 199 173 154 159 199 256 227 216 216 216 215 214 213 208
271 269 265 254 237 228 216 207 210 218 224 220 213 216 225 221 213 208 210 207 202 199 198 195 192 191 188 183 180 171 163 151 148 160 215 229 239 227 215 212 209 211 209
288 272 258 255 255 247 229 215 216 219 216 214 220 218 222 222 217 209 207 209 202 199 198 196 195 193 193 186 182 177 168 166 175 171 199 207 223 234 220 213 211 212 208